Weather reports worldwide

Advertisment
Terschelling/Hoorn, Netherlands (6251): temperature & dewpoint: 14.10.2020 16:00:00 - 20.10.2020 16:00:00 (CEST)Terschelling/Hoorn, Netherlands (6251): temperature 5cm: 14.10.2020 16:00:00 - 20.10.2020 16:00:00 (CEST)Terschelling/Hoorn, Netherlands (6251): wind speed & gusts: 14.10.2020 16:00:00 - 20.10.2020 16:00:00 (CEST)Terschelling/Hoorn, Netherlands (6251): wind direction: 14.10.2020 16:00:00 - 20.10.2020 16:00:00 (CEST)Terschelling/Hoorn, Netherlands (6251): reduced air pressure: 14.10.2020 16:00:00 - 20.10.2020 16:00:00 (CEST)Terschelling/Hoorn, Netherlands (6251): visibility: 14.10.2020 16:00:00 - 20.10.2020 16:00:00 (CEST)Terschelling/Hoorn, Netherlands (6251): precipitation: 14.10.2020 16:00:00 - 20.10.2020 16:00:00 (CEST)
Date & Time tt [°C] td [°C] tt 5cm [°C] ff [km/h] ff [kn] fx [km/h] fx [kn] dd ppp [hPa] vv [km] rr [mm]
20.10.2020 16:00:00 11,5 10,5 11,6 29 16 40 21 S 1004,9 19 0,0
20.10.2020 15:00:00 11,3 10,1 11,3 32 18 43 23 S 1005,3 19 0,0
20.10.2020 14:00:00 10,8 9,6 10,6 32 18 40 21 S 1004,9 21 0,0
20.10.2020 13:00:00 10,6 9,3 10,6 29 16 43 23 S 1005,7 17 0,0
20.10.2020 12:00:00 10,3 8,8 10,1 36 19 47 25 S 1006,2 14 0,1
20.10.2020 11:00:00 9,8 7,8 9,5 32 18 40 21 S 1006,3 15 0,0
20.10.2020 10:00:00 8,5 6,4 8,5 32 18 43 23 SSE 1006,0 16 0,0
20.10.2020 09:00:00 8,2 6,0 7,9 29 16 43 23 SSE 1006,2 16 0,0
20.10.2020 08:00:00 8,0 5,7 7,7 32 18 43 23 SSE 1006,8 15 0,0
20.10.2020 07:00:00 8,1 5,8 7,7 29 16 43 23 SSE 1007,9 14 0,0
20.10.2020 06:00:00 8,2 5,9 8,0 36 19 43 23 SE 1008,4 14 0,0
20.10.2020 05:00:00 8,6 6,2 8,3 32 18 40 21 SE 1009,5 15 0,0
20.10.2020 04:00:00 8,9 6,7 8,5 29 16 36 19 SSE 1010,9 14 0,0
20.10.2020 03:00:00 8,9 7,2 8,5 29 16 36 19 SSE 1011,3 11 0,0
20.10.2020 02:00:00 8,8 7,5 8,5 29 16 36 19 SE 1012,5 9 0,0
20.10.2020 01:00:00 9,1 7,6 8,6 25 14 32 18 SSE 1013,2 11 0,0
20.10.2020 00:00:00 9,3 7,8 8,9 25 14 32 18 SSE 1014,2 11 0,0
19.10.2020 23:00:00 9,3 7,9 8,8 25 14 32 18 SSE 1015,0 12 0,0
19.10.2020 22:00:00 9,4 8,1 9,0 25 14 36 19 SSE 1015,9 12 0,0
19.10.2020 21:00:00 10,2 9,0 10,0 25 14 32 18 SSE 1016,3 12 0,0
19.10.2020 20:00:00 10,2 9,1 10,0 22 12 29 16 SSE 1016,9 14 0,0
19.10.2020 19:00:00 10,3 9,0 10,1 22 12 32 18 SSE 1017,3 15 0,0
19.10.2020 18:00:00 10,4 9,0 10,2 25 14 36 19 S 1017,5 18 0,0
19.10.2020 17:00:00 10,4 8,7 10,3 29 16 40 21 S 1017,9 32 0,0
19.10.2020 16:00:00 11,0 7,9 10,9 29 16 36 19 SSW 1018,4 46 0,0
19.10.2020 15:00:00 11,1 8,4 11,1 22 12 32 18 SSW 1019,0 39 0,0
19.10.2020 14:00:00 11,0 8,4 11,0 22 12 29 16 SSW 1019,6 33 0,0
19.10.2020 13:00:00 11,2 8,9 11,3 22 12 32 18 SSW 1019,8 24 0,0
19.10.2020 12:00:00 10,7 9,3 10,5 18 10 25 14 SSW 1020,2 43 0,2
19.10.2020 11:00:00 9,1 8,3 9,0 4 2 7 4 ENE 1020,2 12 0,8
19.10.2020 10:00:00 9,0 8,9 8,9 0 0 25 14 N 1020,2 10 2,2
19.10.2020 09:00:00 9,5 9,1 8,9 4 2 18 10 WSW 1019,9 25 0,1
19.10.2020 08:00:00 8,5 7,8 7,9 14 8 22 12 SSW 1019,6 50 0,0
19.10.2020 07:00:00 5,8 5,6 5,0 11 6 11 6 WSW 1019,8 41 0,0
19.10.2020 06:00:00 7,6 7,0 7,2 11 6 22 12 W 1020,1 33 0,1
19.10.2020 05:00:00 8,3 7,7 5,1 14 8 18 10 SSW 1020,3 31 0,0
19.10.2020 04:00:00 7,3 7,0 6,1 4 2 11 6 WSW 1020,4 30 0,0
19.10.2020 03:00:00 7,8 7,1 7,0 11 6 14 8 W 1020,9 7 0,1
19.10.2020 02:00:00 8,1 6,9 7,6 14 8 22 12 W 1020,9 16 0,0
19.10.2020 01:00:00 7,0 5,8 4,3 7 4 14 8 W 1020,9 24 0,0
19.10.2020 00:00:00 4,8 3,3 3,5 7 4 11 6 W 1020,8 29 0,0
18.10.2020 23:00:00 5,8 4,2 4,3 7 4 11 6 W 1020,8 36 0,0
18.10.2020 22:00:00 8,2 6,0 8,0 11 6 14 8 W 1020,9 33 0,0
18.10.2020 21:00:00 10,0 5,5 9,2 11 6 18 10 WNW 1021,1 39 0,0
18.10.2020 20:00:00 10,3 5,9 9,4 11 6 22 12 WNW 1020,9 37 0,0
18.10.2020 19:00:00 10,2 6,0 9,8 11 6 18 10 WNW 1020,7 46 0,0
18.10.2020 18:00:00 11,0 6,3 10,6 11 6 22 12 NW 1020,3 37 0,0
18.10.2020 17:00:00 11,1 6,5 10,9 14 8 25 14 NNW 1020,3 33 0,0
18.10.2020 16:00:00 11,2 7,1 11,0 18 10 22 12 NNW 1020,4 39 0,0
18.10.2020 15:00:00 11,6 7,0 11,8 14 8 22 12 NW 1020,8 40 0,0
18.10.2020 14:00:00 11,0 7,5 11,0 11 6 25 14 NNW 1021,0 13 0,0
18.10.2020 13:00:00 11,8 7,2 12,1 18 10 25 14 NW 1021,0 37 0,0
18.10.2020 12:00:00 10,0 9,2 10,3 14 8 32 18 NNW 1021,1 6 0,1
18.10.2020 11:00:00 10,7 8,7 11,1 18 10 29 16 N 1020,7 38 0,0
18.10.2020 10:00:00 11,3 8,5 10,6 18 10 32 18 NNW 1020,4 32 0,0
18.10.2020 09:00:00 11,0 8,0 10,2 18 10 29 16 NNW 1020,0 46 0,0
18.10.2020 08:00:00 10,5 9,2 9,9 14 8 32 18 NW 1019,7 31 0,3
18.10.2020 07:00:00 10,7 8,9 10,0 22 12 29 16 NW 1019,5 35 0,0
18.10.2020 06:00:00 10,5 8,3 10,2 25 14 36 19 NW 1019,8 16 0,0
18.10.2020 05:00:00 11,3 8,2 10,3 18 10 25 14 NW 1019,7 49 0,0
18.10.2020 04:00:00 9,2 6,3 8,4 11 6 18 10 WNW 1020,0 48 0,0
18.10.2020 03:00:00 11,1 7,7 10,1 11 6 18 10 NNW 1020,4 42 0,0
18.10.2020 02:00:00 8,3 8,1 6,9 7 4 18 10 W 1020,5 23 0,0
18.10.2020 01:00:00 6,3 6,3 3,9 4 2 11 6 W 1020,5 2,2 0,0
18.10.2020 00:00:00 8,8 8,1 8,0 11 6 14 8 W 1020,5 33 0,0
17.10.2020 23:00:00 9,6 9,3 9,0 7 4 14 8 WSW 1020,6 37 0,0
17.10.2020 22:00:00 8,5 8,2 8,2 11 6 11 6 WSW 1020,8 25 0,0
17.10.2020 21:00:00 8,6 8,5 8,2 7 4 11 6 W 1021,0 22 0,0
17.10.2020 20:00:00 9,3 8,9 9,0 7 4 11 6 WSW 1020,9 29 0,0
17.10.2020 19:00:00 10,0 9,3 9,5 4 2 7 4 WNW 1020,6 19 0,0
17.10.2020 18:00:00 10,3 9,5 10,4 7 4 11 6 WSW 1020,3 31 0,0
17.10.2020 17:00:00 11,0 9,5 11,1 7 4 11 6 W 1020,6 25 0,0
17.10.2020 16:00:00 11,3 9,6 11,5 7 4 14 8 S 1020,7 38 0,0
17.10.2020 15:00:00 11,2 9,3 11,8 11 6 14 8 S 1020,7 38 0,0
17.10.2020 14:00:00 11,2 9,4 12,5 11 6 14 8 S 1020,8 37 0,0
17.10.2020 13:00:00 11,1 10,5 11,8 11 6 14 8 SSE 1021,2 18 0,0
17.10.2020 12:00:00 11,1 10,6 11,5 11 6 14 8 ESE 1021,2 16 0,0
17.10.2020 11:00:00 10,6 10,2 11,1 7 4 11 6 E 1021,0 16 0,0
17.10.2020 10:00:00 10,0 9,9 10,3 7 4 11 6 ESE 1020,9 11 0,0
17.10.2020 09:00:00 9,1 9,1 8,2 4 2 7 4 NE 1020,7 26 0,0
17.10.2020 08:00:00 7,6 7,6 6,5 4 2 4 2 NNE 1020,6 13 0,0
17.10.2020 07:00:00 8,7 8,7 8,3 4 2 14 8 WNW 1020,5 34 0,1
17.10.2020 06:00:00 9,1 9,1 9,1 11 6 25 14 E 1020,8 6 0,5
17.10.2020 05:00:00 9,9 9,0 9,4 14 8 29 16 N 1020,7 27 0,0
17.10.2020 04:00:00 9,6 9,1 9,4 7 4 7 4 W 1020,8 39 0,0
17.10.2020 03:00:00 9,8 9,1 9,7 7 4 11 6 W 1021,4 36 0,0
17.10.2020 02:00:00 10,1 9,4 9,8 11 6 11 6 W 1021,7 37 0,0
17.10.2020 01:00:00 10,1 9,2 9,9 11 6 14 8 WSW 1022,1 38 0,0
17.10.2020 00:00:00 10,2 9,1 9,7 11 6 11 6 SW 1022,5 42 0,0
16.10.2020 23:00:00 8,6 8,5 8,2 7 4 7 4 S 1022,8 34 0,0
16.10.2020 22:00:00 8,7 8,5 7,8 4 2 7 4 SSW 1022,8 34 0,0
16.10.2020 21:00:00 8,2 8,1 7,8 4 2 4 2 SSW 1023,1 24 0,0
16.10.2020 20:00:00 7,6 7,4 6,1 0 0 4 2 N 1023,2 19 0,0
16.10.2020 19:00:00 9,1 7,1 7,2 0 0 4 2 N 1023,0 38 0,0
16.10.2020 18:00:00 10,7 7,6 10,6 4 2 11 6 NE 1023,0 4,6 0,0
16.10.2020 17:00:00 11,5 6,7 12,2 7 4 14 8 NNE 1023,1 49 0,0
16.10.2020 16:00:00 12,1 6,7 13,6 7 4 14 8 NNE 1023,5 37 0,0
16.10.2020 15:00:00 11,8 6,2 13,6 7 4 11 6 SSE 1023,6 35 0,0
16.10.2020 14:00:00 11,1 6,5 11,8 7 4 22 12 SSE 1024,2 36 0,0
16.10.2020 13:00:00 11,8 5,7 13,7 14 8 25 14 NE 1024,6 36 0,0
16.10.2020 12:00:00 12,0 6,2 13,7 14 8 25 14 ENE 1024,7 20 0,0
16.10.2020 11:00:00 10,6 7,0 9,6 7 4 14 8 ESE 1024,8 42 0,0
16.10.2020 10:00:00 10,1 7,0 9,9 11 6 14 8 E 1024,8 46 0,0
16.10.2020 09:00:00 8,6 6,7 7,8 4 2 7 4 ENE 1024,6 43 0,0
16.10.2020 08:00:00 8,1 5,3 7,2 7 4 7 4 E 1024,2 44 0,0
16.10.2020 07:00:00 7,9 5,6 7,3 7 4 14 8 ENE 1024,0 42 0,0
16.10.2020 06:00:00 8,7 4,6 8,0 11 6 18 10 ENE 1023,9 41 0,0
16.10.2020 05:00:00 8,8 4,1 8,2 14 8 25 14 NE 1024,0 49 0,0
16.10.2020 04:00:00 8,8 5,5 8,5 11 6 18 10 ENE 1024,3 47 0,0
16.10.2020 03:00:00 8,7 5,2 8,4 11 6 25 14 ENE 1024,5 44 0,0
16.10.2020 02:00:00 9,3 4,9 8,6 14 8 22 12 NE 1024,3 49 0,0
16.10.2020 01:00:00 9,3 5,0 8,8 14 8 18 10 NE 1024,3 46 0,0
16.10.2020 00:00:00 9,4 4,7 8,8 11 6 22 12 NE 1024,5 38 0,0
15.10.2020 23:00:00 8,9 4,8 8,5 11 6 22 12 NE 1024,4 44 0,0
15.10.2020 22:00:00 9,3 5,4 8,9 11 6 29 16 ENE 1024,1 42 0,0
15.10.2020 21:00:00 10,1 5,5 9,0 14 8 25 14 NE 1023,9 41 0,0
15.10.2020 20:00:00 10,0 5,4 9,6 18 10 29 16 ENE 1023,7 42 0,0
15.10.2020 19:00:00 9,9 5,4 9,5 18 10 25 14 NE 1023,4 34 0,0
15.10.2020 18:00:00 10,3 5,2 9,9 18 10 29 16 NE 1023,1 43 0,0
15.10.2020 17:00:00 10,5 6,0 10,4 14 8 29 16 ENE 1023,0 42 0,0
15.10.2020 16:00:00 10,8 5,9 10,8 18 10 29 16 NE 1022,8 37 0,0
15.10.2020 15:00:00 10,8 5,6 10,7 22 12 32 18 NE 1022,9 40 0,0
15.10.2020 14:00:00 10,5 5,5 10,3 22 12 29 16 NE 1023,1 21 0,0
15.10.2020 13:00:00 10,6 5,6 10,3 22 12 32 18 NE 1023,3 29 0,0
15.10.2020 12:00:00 10,5 5,2 10,2 22 12 32 18 NE 1023,1 29 0,0
15.10.2020 11:00:00 10,3 5,0 9,7 25 14 36 19 NE 1022,9 43 0,1
15.10.2020 10:00:00 9,1 6,5 8,8 14 8 36 19 ENE 1022,6 18 0,4
15.10.2020 09:00:00 9,4 5,5 8,6 22 12 40 21 NNE 1022,2 25 0,3
15.10.2020 08:00:00 9,8 4,1 9,4 25 14 47 25 ENE 1021,8 41 0,0
15.10.2020 07:00:00 10,7 4,5 10,2 29 16 40 21 NE 1021,5 40 0,0
15.10.2020 06:00:00 10,8 5,4 10,3 29 16 40 21 NE 1021,2 13 0,0
15.10.2020 05:00:00 10,7 3,9 10,0 25 14 36 19 NE 1021,2 45 0,0
15.10.2020 04:00:00 10,8 3,7 9,8 29 16 40 21 NE 1021,3 41 0,0
15.10.2020 03:00:00 10,8 4,8 10,2 29 16 43 23 NE 1021,6 40 0,0
15.10.2020 02:00:00 10,8 4,4 10,0 29 16 40 21 NE 1021,4 32 0,0
15.10.2020 01:00:00 10,8 5,0 10,3 32 18 43 23 NE 1021,5 36 0,0
15.10.2020 00:00:00 10,6 4,5 10,1 29 16 40 21 NE 1021,8 31 0,0
14.10.2020 23:00:00 10,7 4,6 10,1 25 14 43 23 NE 1021,6 36 0,0
14.10.2020 22:00:00 11,0 3,8 10,1 29 16 43 23 NE 1021,6 41 0,0
14.10.2020 21:00:00 10,7 5,0 10,0 29 16 43 23 NE 1021,6 35 0,0
14.10.2020 20:00:00 10,8 5,0 9,9 25 14 43 23 NE 1021,4 31 0,0
14.10.2020 19:00:00 10,8 6,0 9,8 29 16 47 25 NE 1021,2 32 0,0
14.10.2020 18:00:00 10,8 6,0 10,3 32 18 43 23 NE 1020,9 29 0,0
14.10.2020 17:00:00 11,1 5,5 10,8 29 16 43 23 NE 1020,8 31 0,0
14.10.2020 16:00:00 11,4 5,8 11,3 32 18 47 25 NE 1020,9 33 0,0

tt = temperature
td = dewpoint
tt 5cm = temperature 5cm
ff = wind speed
fx = gusts
dd = wind direction
ppp = reduced air pressure
vv = visibility
rr = precipitation

Next stations